FW0209 Weather Reports


time (UTC)temp
C
wind
direction
speed
KPH
gust
KPH
rain 1hr
cm
rain 24hr
cm
rain mn
cm
humidity
%
barometer
mb
20260508084525 16 146 9.7 24.1 0.00 0.00 0.00 60 1015.4
20260508083024 16 94 14.5 24.1 0.00 0.00 0.00 61 1015.3
20260508081541 16 97 11.3 24.1 0.00 0.00 0.00 60 1015.3
20260508080019 16 98 12.9 33.8 0.00 0.00 0.00 59 1015.3
20260508074521 16 118 9.7 27.4 0.00 0.00 0.00 60 1015.1
20260508073017 16 170 9.7 20.9 0.00 0.00 0.00 64 1015.0
20260508071515 15 178 6.4 16.1 0.00 0.00 0.00 68 1014.9
20260508070017 15 184 0.0 0.0 0.00 0.00 0.00 70 1014.8
20260508064512 15 182 3.2 11.3 0.00 0.00 0.00 74 1014.7
20260508063034 14 178 1.6 11.3 0.00 0.00 0.00 74 1014.6
20260508061527 14 177 0.0 0.0 0.00 0.00 0.00 75 1014.6
20260508060022 13 176 3.2 8.0 0.00 0.00 0.00 75 1014.6
20260508054523 13 175 4.8 14.5 0.00 0.00 0.00 74 1014.4
20260508053020 13 179 6.4 12.9 0.00 0.00 0.00 75 1014.2
20260508051551 13 178 0.0 8.0 0.00 0.00 0.00 75 1014.2
20260508050029 13 178 0.0 1.6 0.00 0.00 0.00 74 1014.1
20260508044527 13 185 0.0 3.2 0.00 0.00 0.00 74 1014.0
20260508043024 13 185 0.0 6.4 0.00 0.00 0.00 74 1013.9
20260508041526 13 186 0.0 0.0 0.00 0.00 0.00 74 1013.9
20260508040022 13 185 0.0 4.8 0.00 0.00 0.00 75 1013.9
20260508034545 13 185 0.0 0.0 0.00 0.10 0.00 76 1014.0
20260508033020 12 186 0.0 0.0 0.00 0.10 0.00 77 1014.1
20260508031530 12 186 0.0 0.0 0.00 0.10 0.00 77 1014.1
20260508030011 12 186 0.0 0.0 0.00 0.10 0.00 77 1014.1
20260508024510 12 186 0.0 0.0 0.00 0.10 0.00 77 1014.0
20260508023019 13 186 0.0 0.0 0.00 0.10 0.00 77 1014.1
20260508021521 13 186 0.0 0.0 0.00 0.10 0.00 77 1014.2
20260508020018 12 186 0.0 0.0 0.00 0.10 0.00 77 1014.1
20260508014513 13 186 0.0 0.0 0.00 0.10 0.00 77 1014.2
20260508013015 13 185 0.0 0.0 0.00 0.10 0.00 77 1014.2
20260508011535 13 191 0.0 0.0 0.00 0.10 0.00 76 1014.4
20260508010018 13 194 0.0 0.0 0.00 0.10 0.00 76 1014.4
20260508004536 13 200 0.0 0.0 0.00 0.10 0.00 76 1014.4
20260508003049 13 202 0.0 0.0 0.00 0.10 0.00 76 1014.5
20260508001531 14 204 0.0 0.0 0.00 0.10 0.00 76 1014.6
20260508000025 14 205 0.0 0.0 0.00 0.10 0.00 76 1014.7
20260507234518 14 205 0.0 0.0 0.00 0.20 0.00 76 1014.7
20260507233020 14 206 0.0 0.0 0.00 0.20 0.00 76 1015.0
20260507231519 14 208 0.0 0.0 0.00 0.20 0.00 76 1015.1
20260507230016 15 210 0.0 1.6 0.00 0.20 0.00 75 1015.2
20260507224514 15 209 0.0 0.0 0.00 0.20 0.05 75 1015.4
20260507223033 15 210 0.0 0.0 0.00 0.20 0.05 75 1015.3
20260507221511 15 210 0.0 0.0 0.00 0.20 0.05 75 1015.3
20260507220031 15 210 0.0 0.0 0.00 0.20 0.05 74 1015.4
20260507214524 15 211 0.0 0.0 0.00 0.20 0.05 74 1015.4
20260507213022 15 209 0.0 3.2 0.00 0.20 0.05 74 1015.6
20260507211520 15 209 0.0 0.0 0.00 0.20 0.05 73 1015.3
20260507210019 15 211 0.0 0.0 0.00 0.20 0.05 71 1015.3
20260507204514 15 212 0.0 0.0 0.00 0.20 0.05 69 1015.3
20260507203051 15 209 0.0 0.0 0.00 0.20 0.05 68 1015.4
20260507201527 16 215 0.0 0.0 0.00 0.20 0.05 67 1015.4
20260507200028 16 219 0.0 0.0 0.00 0.20 0.05 66 1015.4
20260507194607 17 220 0.0 0.0 0.00 0.20 0.05 64 1015.4
20260507193018 17 221 0.0 0.0 0.00 0.20 0.05 63 1015.3
20260507191541 17 219 0.0 4.8 0.00 0.20 0.05 63 1015.2
20260507190018 17 222 0.0 8.0 0.00 0.20 0.05 62 1015.1
20260507184530 18 221 3.2 11.3 0.00 0.20 0.05 62 1014.9
20260507183035 18 220 0.0 1.6 0.00 0.20 0.05 61 1014.9
20260507181528 18 220 4.8 14.5 0.00 0.20 0.05 60 1015.0
20260507180023 18 222 0.0 3.2 0.00 0.20 0.05 59 1015.0
20260507174524 19 223 0.0 12.9 0.00 0.20 0.05 57 1014.8
20260507173043 20 221 3.2 12.9 0.00 0.20 0.05 55 1014.7
20260507171523 20 259 0.0 3.2 0.00 0.20 0.05 52 1014.7
20260507170040 20 224 0.0 1.6 0.00 0.20 0.05 51 1014.5
20260507164551 20 224 1.6 16.1 0.00 0.20 0.05 52 1014.5
20260507163018 21 222 0.0 1.6 0.00 0.20 0.05 51 1014.5
20260507161540 21 225 0.0 3.2 0.00 0.20 0.05 50 1014.4
20260507160049 21 225 0.0 3.2 0.00 0.20 0.05 49 1014.4
20260507154548 21 221 0.0 11.3 0.00 0.20 0.05 50 1014.4
20260507153028 21 222 3.2 14.5 0.00 0.20 0.05 41 1014.5
20260507151527 21 222 0.0 4.8 0.00 0.20 0.05 40 1014.5
20260507150018 21 219 0.0 12.9 0.00 0.20 0.05 43 1014.5
20260507144512 22 215 0.0 16.1 0.00 0.20 0.05 48 1014.6
20260507143051 21 207 0.0 8.0 0.00 0.20 0.05 53 1014.7
20260507141519 20 206 4.8 16.1 0.00 0.20 0.05 51 1014.9
20260507140017 20 206 3.2 16.1 0.00 0.20 0.05 53 1015.1
20260507134526 20 206 0.0 1.6 0.00 0.20 0.05 53 1015.1
20260507133021 21 204 0.0 3.2 0.00 0.20 0.05 50 1015.3
20260507131516 21 207 1.6 16.1 0.00 0.20 0.05 49 1015.3
20260507130014 21 205 0.0 12.9 0.00 0.20 0.05 50 1015.4
20260507124537 21 203 0.0 16.1 0.00 0.20 0.05 51 1015.6
20260507123014 21 207 1.6 12.9 0.00 0.20 0.05 53 1015.6
20260507121529 21 211 8.0 12.9 0.00 0.20 0.05 52 1015.8
20260507120022 20 209 9.7 16.1 0.00 0.20 0.05 53 1015.8
20260507114511 21 236 9.7 17.7 0.00 0.20 0.05 51 1015.8
20260507113029 21 228 6.4 16.1 0.00 0.20 0.05 52 1015.9
20260507111530 21 227 3.2 11.3 0.00 0.20 0.05 53 1015.9
20260507110025 20 184 4.8 14.5 0.00 0.20 0.05 55 1015.9
20260507104527 20 227 0.0 0.0 0.00 0.20 0.05 53 1016.0
20260507103105 20 182 0.0 0.0 0.00 0.20 0.05 55 1016.2
20260507101543 18 190 0.0 0.0 0.00 0.20 0.05 56 1016.4
20260507100021 18 187 0.0 0.0 0.00 0.20 0.05 57 1016.6
20260507094522 18 189 0.0 0.0 0.00 0.20 0.05 59 1016.5
20260507093021 18 184 0.0 0.0 0.00 0.20 0.05 60 1016.6
20260507091535 17 184 0.0 0.0 0.00 0.20 0.05 63 1016.6
20260507090013 17 190 0.0 0.0 0.00 0.20 0.05 65 1016.8